Location: �terpigny
(49.8910°N, 2.9249°E)
Time: 15:46:28
(UTC+00:00)

Cosmos 2346 Rocket - Pass Details

Date: 24 October 2021
Orbit: 937 x 979 km, 82.9° (Epoch: 03 December)

Event Time Altitude Azimuth Distance (km) Brightness Sun altitude
Rises 19:27:55 0° 349° (N) 3,683 7.8 -27.6°
Reaches altitude 10° 19:30:26 10° 348° (NNW) 2,735 7.1 -28.0°
Maximum altitude 19:36:43 79° 263° (W) 1,001 4.5 -29.0°
Enters shadow 19:38:12 55° 189° (S) 1,172 4.8 -29.2°
